Regional Weather Roundup
Issued by NWS Newport/Morehead, NC

Current Version | Previous Version | Graphics & Text | Print | Product List | Glossary Off
Versions: 1 2 3 4 5 6 7 8 9 10 11 12 13 14 15 16 17 18 19 20 21 22 23 24 25 26 27 28 29 30 31 32 33 34 35 36 37 38 39 40 41 42 43 44 45 46 47 48 49 50
000 ASUS42 KMHX 171813 RWRMHX WEATHER ROUNDUP FOR EASTERN NORTH CAROLINA NATIONAL WEATHER SERVICE NEWPORT/MOREHEAD CITY NC 200 PM EDT TUE OCT 17 2017 NOTE: "FAIR" INDICATES FEW OR NO CLOUDS BELOW 12,000 FEET WITH NO SIGNIFICANT WEATHER AND/OR OBSTRUCTIONS TO VISIBILITY NCZ015>017-031-032-045>047-102-103-171900- NORTH COAST CITY SKY/WX TMP DP RH WIND PRES REMARKS EDENTON SUNNY 63 44 50 NE7 30.30F ELIZABETH CITY SUNNY 62 40 44 N9 30.30S KITTY HAWK CLOUDY 59 44 58 N9G17 30.27F MANTEO CLOUDY N/A N/A N/A NE14G23 30.29S $$ NCZ045>047-081-094-103-104-171900- CENTRAL COAST CITY SKY/WX TMP DP RH WIND PRES REMARKS FRISCO MOSUNNY 63 46 54 N15G24 30.25F $$ NCZ095-097-098-100-101-171900- SOUTHERN COAST CITY SKY/WX TMP DP RH WIND PRES REMARKS BEAUFORT PTSUNNY 65 46 50 NE14G24 30.25F CEDAR ISLAND NOT AVBL JACKSONVILLE CLOUDY 63 48 58 N15 30.27F PINEY ISLAND N/A N/A N/A N/A N16G26 30.26F WILMINGTON CLOUDY 63 47 55 N15G25 30.27F $$ NCZ011>013-027>030-043-044-078>080-089-090>093-098-171900- COASTAL PLAIN CITY SKY/WX TMP DP RH WIND PRES REMARKS AHOSKIE SUNNY 60 40 47 N9 30.32F CLINTON SUNNY 65 42 43 N8 30.31F ELIZABETHTOWN NOT AVBL GOLDSBORO SUNNY 64 39 40 N10 30.28F GREENVILLE SUNNY 64 37 36 N9 30.30F HAVELOCK CLOUDY 64 50 60 NE17 30.28F KENANSVILLE SUNNY 64 39 39 E7 30.30F KINSTON SUNNY N/A N/A N/A N16 30.30F NEW BERN PTSUNNY 62 43 49 N12 30.29F RICHLANDS CLOUDY 60 44 55 N12 30.29F ROCKY MOUNT SUNNY 63 38 39 N13 30.31F WASHINGTON MOSUNNY 63 43 46 NE5G16 30.30F WHITEVILLE MOSUNNY 64 43 45 NE7 30.28F $$ AMZ130-135-150-152-154-156-158-170-250-252-270-ANZ085-086-088-633-658-670-171900- MARINE OBSERVATIONS STATION/POSITION TIME TEMP WIND PRES WAVE SWELL AIR SEA DIR/SP/G HT/PER HT/PER (UTC) (F) (DEG/KT/KT) (MB) (FT/S) (FT/S) CHESAPEAKE LIGHT NOT AVBL 64 E VA BEACH 1750 60 67 10/ 17/ 19 1025.1 7/ 7 DUCK 1742 58 68 10/ 19/ 22 1025.0 2 E DUCK 1800 71 N/A 6/ 7 2/11 OREGON INLET 1742 60 67 360/ 15/ 19 1024.9 13E OREGON INLT 1748 72 N/A 8/ 8 5/ 8 HATTERAS CG 1742 60 69 20/ 22/ 26 1024.3 DIAMOND BUOY 1750 63 81 10/ 21/ 25 1023.5 8/11 5/11 CAPE LOOKOUT 1800 63 20/ 18/ 21 1024.1 BEAUFORT LAB 1742 64 72 20/ 12/ 18 1024.9 30 SE NEW RVR IN 1708 66 40/ 23/ 29 1023.7 30 SE NEW RVR IN NOT AVBL 27 SE WRIGHTSVLE 1708 66 77 50/ 19/ 29 1023.6 5 SE WRIGHTSVLE 1708 62 75 40/ 17/ 31 1025.1 225 S CAPE HAT 1750 77 80 30/ 21/ 25 1016.4 11/10 41 SE CHARLESTON 1800 68 80 20/ 23/ 29 1021.8 $$

USA.gov is the U.S. government's official web portal to all federal, state and local government web resources and services.